Pompano Beach, FL

11:03 AM EST on November 21, 2017 (GMT -0500)
Pompano Beach

Weather History for KPMP - November, 2011

Change the Weather History Date:

Monday, November 7, 2011

  Actual Average Record
Temperature  
Mean Temperature 76 °F -  
Max Temperature 81 °F 82 °F 90 °F (1975)
Min Temperature 71 °F 65 °F 48 °F (1954)
Cooling Degree Days 12    
Growing Degree Days 26 (Base 50)    
Moisture  
Dew Point 61 °F    
Average Humidity 60    
Maximum Humidity 87    
Minimum Humidity 48    
Precipitation  
Precipitation 0.01 in - - ()
Sea Level Pressure  
Sea Level Pressure 30.08 in    
Wind  
Wind Speed 14 mph (NE)    
Max Wind Speed 18 mph    
Max Gust Speed 25 mph    
Visibility 10 miles    
Events Rain    
Averages and records for this station are not official NWS values.
T = Trace of Precipitation, MM = Missing Value Source: NWS Daily Summary

Daily Weather History Graph

Daily Weather History Graph

Search for Another Location

Airport or City:

Trip Planner

Search our weather history database for the weather conditions in past years. The results will help you decide how hot, cold, wet, or windy it might be!

Date:

Astronomy

Nov. 07, 2011 Rise Set
Actual Time 6:33 AM EST 5:34 PM EST
Civil Twilight 6:09 AM EST 5:58 PM EST
Nautical Twilight 5:41 AM EST 6:26 PM EST
Astronomical Twilight 5:14 AM EST 6:53 PM EST
Moon 3:35 PM EST (11/7) 3:46 AM EST (11/7)
Length of Visible Light 11h 49m
Length of Day
11h 01m
Waxing Gibbous, 91% of the Moon is Illuminated
Nov 7
Waxing Gibbous
Nov 10
Full
Nov 18
Last Quarter
Nov 25
New
Dec 2
First Quarter

Hourly Weather History & Observations

Time (EST) Temp. Heat Index Dew Point Humidity Pressure Visibility Wind Dir Wind Speed Gust Speed Precip Events Conditions
12:53 AM 75.0 °F - 63.0 °F 66% 30.09 in 9.0 mi East 17.3 mph 25.3 mph 0.00 in Rain Light Rain
1:53 AM 75.0 °F - 61.0 °F 62% 30.07 in 10.0 mi ENE 15.0 mph - 0.00 in   Clear
2:53 AM 75.0 °F - 59.0 °F 57% 30.06 in 10.0 mi ENE 11.5 mph - N/A   Clear
3:53 AM 75.0 °F - 60.1 °F 60% 30.07 in 10.0 mi NE 12.7 mph - N/A   Clear
4:53 AM 75.0 °F - 59.0 °F 57% 30.08 in 10.0 mi ENE 13.8 mph - N/A   Scattered Clouds
5:53 AM 75.0 °F - 59.0 °F 57% 30.09 in 10.0 mi ENE 9.2 mph - N/A   Partly Cloudy
6:53 AM 75.0 °F - 57.0 °F 53% 30.10 in 10.0 mi ENE 12.7 mph - N/A   Mostly Cloudy
7:53 AM 77.0 °F - 60.1 °F 56% 30.12 in 10.0 mi ENE 12.7 mph - N/A   Scattered Clouds
8:53 AM 78.1 °F - 60.1 °F 54% 30.13 in 10.0 mi ENE 12.7 mph - N/A   Partly Cloudy
9:53 AM 80.1 °F 81.1 °F 61.0 °F 52% 30.13 in 10.0 mi ENE 16.1 mph - N/A   Partly Cloudy
10:53 AM 80.1 °F 80.7 °F 59.0 °F 48% 30.12 in 10.0 mi ENE 12.7 mph - N/A   Scattered Clouds
11:53 AM 81.0 °F 81.6 °F 60.1 °F 49% 30.10 in 10.0 mi NE 17.3 mph - N/A   Partly Cloudy
12:53 PM 80.1 °F 81.1 °F 61.0 °F 52% 30.08 in 10.0 mi NE 16.1 mph - N/A   Partly Cloudy
1:53 PM 81.0 °F 81.9 °F 62.1 °F 52% 30.06 in 10.0 mi NE 16.1 mph 20.7 mph N/A   Partly Cloudy
2:53 PM 80.1 °F 81.7 °F 64.0 °F 58% 30.05 in 10.0 mi NE 18.4 mph 23.0 mph N/A   Partly Cloudy
4:53 PM 78.1 °F - 63.0 °F 60% 30.05 in 10.0 mi NE 16.1 mph 21.9 mph N/A   Partly Cloudy
5:53 PM 75.9 °F - 61.0 °F 60% 30.05 in 10.0 mi NE 10.4 mph - N/A   Partly Cloudy
6:53 PM 75.9 °F - 62.1 °F 62% 30.06 in 10.0 mi NE 11.5 mph - N/A   Mostly Cloudy
7:53 PM 75.9 °F - 62.1 °F 62% 30.08 in 10.0 mi NE 13.8 mph - N/A   Scattered Clouds
8:53 PM 75.0 °F - 62.1 °F 64% 30.08 in 10.0 mi ENE 12.7 mph - N/A   Partly Cloudy
9:53 PM 73.0 °F - 64.9 °F 76% 30.09 in 10.0 mi NNE 9.2 mph - 0.00 in Rain Light Rain
10:53 PM 72.0 °F - 66.9 °F 84% 30.08 in 8.0 mi North 12.7 mph 20.7 mph 0.00 in Rain Light Rain
11:53 PM 71.1 °F - 66.9 °F 87% 30.06 in 10.0 mi NNE 4.6 mph - 0.01 in Rain Light Rain